Flag Weather past 2 weeks in Iasi, Romania

Now
28 °F

Overcast.


Feels Like: 23 °F
Forecast: 28 / 34 °F
Wind: 5 mph from West

Location: Iasi Airport

Current Time: Nov 27, 2014 at 7:50:31 PM

Latest Report: Nov 27, 2014 at 7:00 PM


Visibility: N/A

Pressure: 30.30 "Hg

Humidity: 86%

Dew point: 25 °F

Location of IasiLocation

Historic Weather in Iasi — Graph

°F

Iasi temperature yesterday

Maximum temperature yesterday: 27 °F (at 1:00 AM)
Minimum temperature yesterday: 25 °F (at 3:00 AM)
Average temperature yesterday: 26 °F

Past Weeks' High & Low Weather Summary

 TemperatureHumidityPressure
High50 °F (Nov 12, 7:00 PM)100% (Nov 14, 6:30 PM)30.54 "Hg (Nov 14, 6:30 PM)
Low25 °F (Nov 26, 3:00 AM)69% (Nov 26, 11:00 AM)30.01 "Hg (Nov 20, 1:00 AM)
Average36 °F91%30.24 "Hg
* Reported Nov 12 7:00 PM — Nov 27 7:00 PM, Iasi, Weather by CustomWeather, © 2014

Note: Actual official high and low records may vary slightly from our data, if they occured in-between our weather recording intervals... More about our weather records

Advertising

Iasi weather history for previous 24 hours

 ConditionsComfort  
Time TempWeatherWind HumidityBarometerVisibility
7:00 PM
Nov 27
28 °FOvercast.5 mph86%30.30 "HgN/A
6:30 PM28 °FOvercast.2 mph86%30.30 "HgN/A
6:00 PM28 °FOvercast.2 mph86%30.30 "HgN/A
5:30 PM28 °FOvercast.2 mph86%30.30 "HgN/A
5:00 PM28 °FOvercast.1 mph86%30.30 "HgN/A
4:30 PM28 °FOvercast.2 mph86%30.30 "HgN/A
4:00 PM28 °FOvercast.2 mph86%30.30 "HgN/A
3:30 PM28 °FOvercast.2 mph80%30.30 "HgN/A
3:00 PM28 °FOvercast.2 mph86%30.30 "HgN/A
2:30 PM28 °FOvercast.2 mph80%30.30 "HgN/A
2:00 PM28 °FOvercast.2 mph80%30.30 "HgN/A
1:30 PM28 °FOvercast.5 mph80%30.30 "HgN/A
1:00 PM28 °FOvercast.5 mph80%30.30 "HgN/A
12:30 PM28 °FOvercast.2 mph80%30.30 "HgN/A
12:00 PM28 °FOvercast.2 mph80%30.30 "HgN/A
11:30 AM28 °FOvercast.2 mph80%30.30 "HgN/A
11:00 AM28 °FOvercast.2 mph80%30.33 "HgN/A
10:30 AM27 °FOvercast.2 mph86%30.33 "HgN/A
10:00 AM27 °FOvercast.2 mph86%30.33 "HgN/A
9:30 AM27 °FOvercast.No wind86%30.33 "HgN/A
9:00 AM27 °FOvercast.2 mph86%30.33 "HgN/A
8:30 AM27 °FOvercast.2 mph86%30.33 "HgN/A
8:00 AM27 °FOvercast.2 mph80%30.33 "HgN/A
7:30 AM27 °FOvercast.2 mph80%30.33 "HgN/A
7:00 AM27 °FOvercast.2 mph80%30.30 "HgN/A
6:30 AM27 °FOvercast.2 mph80%30.30 "HgN/A
6:00 AM27 °FOvercast.2 mph80%30.30 "HgN/A
5:30 AM27 °FOvercast.5 mph80%30.30 "HgN/A
4:00 AM27 °FOvercast.2 mph80%30.30 "HgN/A
3:00 AM27 °FOvercast.2 mph80%30.33 "HgN/A
2:00 AM27 °FOvercast.5 mph80%30.33 "HgN/A
1:00 AM27 °FOvercast.2 mph80%30.33 "HgN/A
12:00 AM27 °FOvercast.2 mph80%30.33 "HgN/A
11:00 PM
Nov 26
27 °FOvercast.2 mph80%30.36 "HgN/A
10:00 PM27 °FOvercast.5 mph80%30.36 "HgN/A
9:00 PM27 °FOvercast.2 mph80%30.36 "HgN/A
8:30 PM27 °FOvercast.2 mph74%30.36 "HgN/A
8:00 PM27 °FOvercast.2 mph80%30.36 "HgN/A
7:30 PM27 °FOvercast.2 mph74%30.36 "HgN/A
7:00 PM27 °FOvercast.2 mph74%30.36 "HgN/A
Weather by CustomWeather, © 2014

See weather overviewHow to use our weather pages